owner,sensor,date,latitude,longitude,vertical_datum,wind_speed,wind_to_direction,wind_speed_of_gust,qcFlag 
TABS,ioos:station:wmo:42043:1,2019-09-01T05:00:00Z,28.9818,-94.9186,4.0,1.83,136.1,2.69,'11111222,11111222,11111222' 
TABS,ioos:station:wmo:42043:1,2019-09-01T06:00:00Z,28.9818,-94.9186,4.0,1.38,127.1,2.25,'11111222,11111222,11111222' 
TABS,ioos:station:wmo:42043:1,2019-09-01T07:00:00Z,28.9818,-94.9186,4.0,1.16,106.5,1.73,'11111222,11111222,11111222' 
TABS,ioos:station:wmo:42043:1,2019-09-01T08:00:00Z,28.9818,-94.9186,4.0,0.02,237.4,0.69,'11111222,11111222,11111222' 
TABS,ioos:station:wmo:42043:1,2019-09-01T09:00:00Z,28.9818,-94.9186,4.0,1.82,0.3,2.52,'11111222,11111222,11111222' 
TABS,ioos:station:wmo:42043:1,2019-09-01T20:00:00Z,28.9818,-94.9186,4.0,5.19,52.7,6.28,'11111222,11111222,11111222' 
TABS,ioos:station:wmo:42043:1,2019-09-01T21:00:00Z,28.9818,-94.9186,4.0,5.4,59.2,6.71,'11111222,11111222,11111222' 
TABS,ioos:station:wmo:42043:1,2019-09-01T21:30:00Z,28.9818,-94.9186,4.0,5.47,63.4,6.55,'11111222,11111222,11111222' 
TABS,ioos:station:wmo:42043:1,2019-09-02T00:00:00Z,28.9818,-94.9186,4.0,5.71,85.1,6.86,'11111222,11111222,11111222' 
TABS,ioos:station:wmo:42043:1,2019-09-02T15:00:00Z,28.9818,-94.9186,4.0,5.77,31.5,7.18,'11111222,11111222,11111222' 
TABS,ioos:station:wmo:42043:1,2019-09-02T16:00:00Z,28.9818,-94.9186,4.0,7.62,33.5,8.93,'11111222,11111222,11111222' 
TABS,ioos:station:wmo:42043:1,2019-09-02T17:00:00Z,28.9818,-94.9186,4.0,7.03,36.1,8.86,'11111222,11111222,11111222' 
TABS,ioos:station:wmo:42043:1,2019-09-02T18:00:00Z,28.9818,-94.9186,4.0,7.19,46.5,8.84,'11111222,11111222,11111222' 
TABS,ioos:station:wmo:42043:1,2019-09-02T19:00:00Z,28.9818,-94.9186,4.0,6.63,52.6,8.65,'11111222,11111222,11111222' 
TABS,ioos:station:wmo:42043:1,2019-09-02T20:00:00Z,28.9818,-94.9186,4.0,7.03,61.0,8.2,'11111222,11111222,11111222' 
TABS,ioos:station:wmo:42043:1,2019-09-02T21:00:00Z,28.9818,-94.9186,4.0,6.98,72.2,8.52,'11111222,11111222,11111222' 
TABS,ioos:station:wmo:42043:1,2019-09-02T22:00:00Z,28.9818,-94.9186,4.0,6.85,74.2,8.09,'11111222,11111222,11111222' 
TABS,ioos:station:wmo:42043:1,2019-09-02T23:00:00Z,28.9818,-94.9186,4.0,6.4,76.2,7.67,'11111222,11111222,11111222' 
TABS,ioos:station:wmo:42043:1,2019-09-02T23:30:00Z,28.9818,-94.9186,4.0,6.35,77.7,7.67,'11111222,11111222,11111222' 
TABS,ioos:station:wmo:42043:1,2019-09-03T04:00:00Z,28.9818,-94.9186,4.0,3.63,41.6,4.57,'11111222,11111222,11111222' 
TABS,ioos:station:wmo:42043:1,2019-09-03T05:00:00Z,28.9818,-94.9186,4.0,3.69,30.2,4.5,'11111222,11111222,11111222' 
TABS,ioos:station:wmo:42043:1,2019-09-03T06:00:00Z,28.9818,-94.9186,4.0,4.23,25.2,4.95,'11111222,11111222,11111222' 
TABS,ioos:station:wmo:42043:1,2019-09-03T07:00:00Z,28.9818,-94.9186,4.0,5.11,28.4,6.21,'11111222,11111222,11111222' 
TABS,ioos:station:wmo:42043:1,2019-09-03T08:00:00Z,28.9818,-94.9186,4.0,5.67,39.5,6.81,'11111222,11111222,11111222' 
TABS,ioos:station:wmo:42043:1,2019-09-03T09:00:00Z,28.9818,-94.9186,4.0,6.77,70.5,9.51,'11111222,11111222,11111222' 
TABS,ioos:station:wmo:42043:1,2019-09-03T10:00:00Z,28.9818,-94.9186,4.0,5.92,107.9,7.29,'11111222,11111222,11111222' 
TABS,ioos:station:wmo:42043:1,2019-09-03T11:00:00Z,28.9818,-94.9186,4.0,5.43,71.7,9.54,'11111222,11111222,11111222' 
TABS,ioos:station:wmo:42043:1,2019-09-03T12:00:00Z,28.9818,-94.9186,4.0,6.35,92.4,7.84,'11111222,11111222,11111222' 
TABS,ioos:station:wmo:42043:1,2019-09-03T13:00:00Z,28.9818,-94.9186,4.0,3.75,69.9,4.46,'11111222,11111222,11111222' 
TABS,ioos:station:wmo:42043:1,2019-09-03T14:00:00Z,28.9818,-94.9186,4.0,5.18,40.2,6.2,'11111222,11111222,11111222' 
TABS,ioos:station:wmo:42043:1,2019-09-03T15:00:00Z,28.9818,-94.9186,4.0,7.06,45.7,8.83,'11111222,11111222,11111222' 
TABS,ioos:station:wmo:42043:1,2019-09-03T16:00:00Z,28.9818,-94.9186,4.0,6.99,53.5,8.59,'11111222,11111222,11111222' 
TABS,ioos:station:wmo:42043:1,2019-09-03T17:00:00Z,28.9818,-94.9186,4.0,4.74,37.3,5.75,'11111222,11111222,11111222' 
TABS,ioos:station:wmo:42043:1,2019-09-03T18:00:00Z,28.9818,-94.9186,4.0,6.83,55.0,8.33,'11111222,11111222,11111222' 
TABS,ioos:station:wmo:42043:1,2019-09-03T19:00:00Z,28.9818,-94.9186,4.0,7.3,61.0,8.66,'11111222,11111222,11111222' 
TABS,ioos:station:wmo:42043:1,2019-09-03T20:00:00Z,28.9818,-94.9186,4.0,7.29,69.0,8.91,'11111222,11111222,11111222' 
TABS,ioos:station:wmo:42043:1,2019-09-03T20:30:00Z,28.9818,-94.9186,4.0,6.93,66.2,8.44,'11111222,11111222,11111222' 
TABS,ioos:station:wmo:42043:1,2019-09-03T21:30:00Z,28.9818,-94.9186,4.0,7.27,66.7,8.75,'11111222,11111222,11111222' 
TABS,ioos:station:wmo:42043:1,2019-09-03T23:00:00Z,28.9818,-94.9186,4.0,7.36,84.7,9.15,'11111222,11111222,11111222' 
TABS,ioos:station:wmo:42043:1,2019-09-03T23:30:00Z,28.9818,-94.9186,4.0,7.27,76.6,8.8,'11111222,11111222,11111222' 
TABS,ioos:station:wmo:42043:1,2019-09-04T04:00:00Z,28.9818,-94.9186,4.0,6.51,91.8,8.25,'11111222,11111222,11111222' 
TABS,ioos:station:wmo:42043:1,2019-09-04T05:00:00Z,28.9818,-94.9186,4.0,6.4,93.3,7.56,'11111222,11111222,11111222' 
TABS,ioos:station:wmo:42043:1,2019-09-04T06:00:00Z,28.9818,-94.9186,4.0,7.02,94.2,8.63,'11111222,11111222,11111222' 
TABS,ioos:station:wmo:42043:1,2019-09-04T07:00:00Z,28.9818,-94.9186,4.0,7.34,90.9,8.61,'11111222,11111222,11111222' 
TABS,ioos:station:wmo:42043:1,2019-09-04T08:00:00Z,28.9818,-94.9186,4.0,7.62,83.1,9.5,'11111222,11111222,11111222' 
TABS,ioos:station:wmo:42043:1,2019-09-04T09:00:00Z,28.9818,-94.9186,4.0,7.46,78.8,8.69,'11111222,11111222,11111222' 
TABS,ioos:station:wmo:42043:1,2019-09-04T10:00:00Z,28.9818,-94.9186,4.0,7.2,85.5,8.71,'11111222,11111222,11111222' 
TABS,ioos:station:wmo:42043:1,2019-09-04T11:00:00Z,28.9818,-94.9186,4.0,7.08,79.9,8.64,'11111222,11111222,11111222' 
TABS,ioos:station:wmo:42043:1,2019-09-04T12:00:00Z,28.9818,-94.9186,4.0,7.37,75.9,8.7,'11111222,11111222,11111222' 
TABS,ioos:station:wmo:42043:1,2019-09-04T13:00:00Z,28.9818,-94.9186,4.0,7.28,73.0,8.64,'11111222,11111222,11111222' 
TABS,ioos:station:wmo:42043:1,2019-09-04T14:00:00Z,28.9818,-94.9186,4.0,8.0,68.8,9.73,'11111222,11111222,11111222' 
TABS,ioos:station:wmo:42043:1,2019-09-04T15:00:00Z,28.9818,-94.9186,4.0,8.01,65.2,9.52,'11111222,11111222,11111222' 
TABS,ioos:station:wmo:42043:1,2019-09-04T16:00:00Z,28.9818,-94.9186,4.0,8.19,61.2,9.95,'11111222,11111222,11111222' 
TABS,ioos:station:wmo:42043:1,2019-09-04T17:00:00Z,28.9818,-94.9186,4.0,8.7,62.8,10.47,'11111222,11111222,11111222' 
TABS,ioos:station:wmo:42043:1,2019-09-04T18:00:00Z,28.9818,-94.9186,4.0,7.88,65.5,9.58,'11111222,11111222,11111222' 
TABS,ioos:station:wmo:42043:1,2019-09-04T19:00:00Z,28.9818,-94.9186,4.0,7.69,73.3,9.21,'11111222,11111222,11111222' 
TABS,ioos:station:wmo:42043:1,2019-09-04T20:00:00Z,28.9818,-94.9186,4.0,7.48,76.1,9.12,'11111222,11111222,11111222' 
TABS,ioos:station:wmo:42043:1,2019-09-04T21:00:00Z,28.9818,-94.9186,4.0,7.89,83.4,9.55,'11111222,11111222,11111222' 
TABS,ioos:station:wmo:42043:1,2019-09-04T22:00:00Z,28.9818,-94.9186,4.0,7.44,83.4,9.06,'11111222,11111222,11111222' 
TABS,ioos:station:wmo:42043:1,2019-09-04T23:00:00Z,28.9818,-94.9186,4.0,7.14,79.7,9.04,'11111222,11111222,11111222' 
TABS,ioos:station:wmo:42043:1,2019-09-04T23:30:00Z,28.9818,-94.9186,4.0,7.15,90.6,8.39,'11111222,11111222,11111222' 
TABS,ioos:station:wmo:42043:1,2019-09-05T04:00:00Z,28.9818,-94.9186,4.0,5.61,122.6,7.01,'11111222,11111222,11111222' 
TABS,ioos:station:wmo:42043:1,2019-09-05T05:00:00Z,28.9818,-94.9186,4.0,5.2,115.6,6.27,'11111222,11111222,11111222' 
TABS,ioos:station:wmo:42043:1,2019-09-05T06:00:00Z,28.9818,-94.9186,4.0,4.76,123.3,5.93,'11111222,11111222,11111222' 
TABS,ioos:station:wmo:42043:1,2019-09-05T07:00:00Z,28.9818,-94.9186,4.0,4.16,122.0,5.32,'11111222,11111222,11111222' 
TABS,ioos:station:wmo:42043:1,2019-09-05T08:00:00Z,28.9818,-94.9186,4.0,3.76,127.0,4.68,'11111222,11111222,11111222' 
TABS,ioos:station:wmo:42043:1,2019-09-05T09:00:00Z,28.9818,-94.9186,4.0,3.06,115.6,3.71,'11111222,11111222,11111222' 
TABS,ioos:station:wmo:42043:1,2019-09-05T10:00:00Z,28.9818,-94.9186,4.0,3.06,102.8,4.1,'11111222,11111222,11111222' 
TABS,ioos:station:wmo:42043:1,2019-09-05T11:00:00Z,28.9818,-94.9186,4.0,2.79,102.3,3.67,'11111222,11111222,11111222' 
TABS,ioos:station:wmo:42043:1,2019-09-05T12:00:00Z,28.9818,-94.9186,4.0,2.93,92.6,3.7,'11111222,11111222,11111222' 
TABS,ioos:station:wmo:42043:1,2019-09-05T13:00:00Z,28.9818,-94.9186,4.0,3.24,66.8,4.46,'11111222,11111222,11111222' 
TABS,ioos:station:wmo:42043:1,2019-09-05T14:00:00Z,28.9818,-94.9186,4.0,3.4,60.6,4.19,'11111222,11111222,11111222' 
TABS,ioos:station:wmo:42043:1,2019-09-05T15:00:00Z,28.9818,-94.9186,4.0,3.87,62.8,4.62,'11111222,11111222,11111222' 
TABS,ioos:station:wmo:42043:1,2019-09-05T16:00:00Z,28.9818,-94.9186,4.0,3.82,62.8,4.78,'11111222,11111222,11111222' 
TABS,ioos:station:wmo:42043:1,2019-09-05T17:00:00Z,28.9818,-94.9186,4.0,4.14,67.8,5.14,'11111222,11111222,11111222' 
TABS,ioos:station:wmo:42043:1,2019-09-05T18:00:00Z,28.9818,-94.9186,4.0,4.44,64.5,5.43,'11111222,11111222,11111222' 
TABS,ioos:station:wmo:42043:1,2019-09-05T19:00:00Z,28.9818,-94.9186,4.0,3.63,75.4,4.71,'11111222,11111222,11111222' 
TABS,ioos:station:wmo:42043:1,2019-09-05T20:00:00Z,28.9818,-94.9186,4.0,2.89,91.8,3.77,'11111222,11111222,11111222' 
TABS,ioos:station:wmo:42043:1,2019-09-05T21:00:00Z,28.9818,-94.9186,4.0,2.2,102.2,3.05,'11111222,11111222,11111222' 
TABS,ioos:station:wmo:42043:1,2019-09-05T22:00:00Z,28.9818,-94.9186,4.0,2.85,99.4,3.72,'11111222,11111222,11111222' 
TABS,ioos:station:wmo:42043:1,2019-09-05T23:00:00Z,28.9818,-94.9186,4.0,3.34,118.1,4.35,'11111222,11111222,11111222' 
TABS,ioos:station:wmo:42043:1,2019-09-05T23:30:00Z,28.9818,-94.9186,4.0,3.59,131.3,4.61,'11111222,11111222,11111222' 
TABS,ioos:station:wmo:42043:1,2019-09-06T04:00:00Z,28.9818,-94.9186,4.0,3.9,184.5,4.85,'11111222,11111222,11111222' 
TABS,ioos:station:wmo:42043:1,2019-09-06T06:30:00Z,28.9818,-94.9186,4.0,4.78,190.5,5.68,'11111222,11111222,11111222' 
TABS,ioos:station:wmo:42043:1,2019-09-06T07:00:00Z,28.9818,-94.9186,4.0,4.91,191.3,6.26,'11111222,11111222,11111222' 
TABS,ioos:station:wmo:42043:1,2019-09-06T08:00:00Z,28.9818,-94.9186,4.0,3.96,211.4,5.13,'11111222,11111222,11111222' 
TABS,ioos:station:wmo:42043:1,2019-09-06T09:00:00Z,28.9818,-94.9186,4.0,4.04,215.5,4.97,'11111222,11111222,11111222' 
TABS,ioos:station:wmo:42043:1,2019-09-06T10:00:00Z,28.9818,-94.9186,4.0,3.61,234.6,4.71,'11111222,11111222,11111222' 
TABS,ioos:station:wmo:42043:1,2019-09-06T11:00:00Z,28.9818,-94.9186,4.0,3.23,249.8,4.01,'11111222,11111222,11111222' 
TABS,ioos:station:wmo:42043:1,2019-09-06T12:00:00Z,28.9818,-94.9186,4.0,2.57,274.6,3.2,'11111222,11111222,11111222' 
TABS,ioos:station:wmo:42043:1,2019-09-06T13:00:00Z,28.9818,-94.9186,4.0,3.36,320.8,4.06,'11111222,11111222,11111222' 
TABS,ioos:station:wmo:42043:1,2019-09-06T14:00:00Z,28.9818,-94.9186,4.0,3.92,333.2,4.66,'11111222,11111222,11111222' 
TABS,ioos:station:wmo:42043:1,2019-09-06T15:00:00Z,28.9818,-94.9186,4.0,3.3,331.2,4.07,'11111222,11111222,11111222' 
TABS,ioos:station:wmo:42043:1,2019-09-06T16:00:00Z,28.9818,-94.9186,4.0,3.37,351.1,4.21,'11111222,11111222,11111222' 
TABS,ioos:station:wmo:42043:1,2019-09-06T17:00:00Z,28.9818,-94.9186,4.0,2.85,8.6,3.55,'11111222,11111222,11111222' 
TABS,ioos:station:wmo:42043:1,2019-09-06T18:00:00Z,28.9818,-94.9186,4.0,2.83,28.7,3.62,'11111222,11111222,11111222' 
TABS,ioos:station:wmo:42043:1,2019-09-06T19:00:00Z,28.9818,-94.9186,4.0,1.73,45.6,2.29,'11111222,11111222,11111222' 
TABS,ioos:station:wmo:42043:1,2019-09-06T20:00:00Z,28.9818,-94.9186,4.0,1.27,71.8,1.91,'11111222,11111222,11111222' 
TABS,ioos:station:wmo:42043:1,2019-09-06T21:00:00Z,28.9818,-94.9186,4.0,1.94,131.4,2.68,'11111222,11111222,11111222' 
TABS,ioos:station:wmo:42043:1,2019-09-06T22:00:00Z,28.9818,-94.9186,4.0,1.39,141.9,2.26,'11111222,11111222,11111222' 
TABS,ioos:station:wmo:42043:1,2019-09-06T23:00:00Z,28.9818,-94.9186,4.0,1.65,139.5,2.85,'11111222,11111222,11111222' 
TABS,ioos:station:wmo:42043:1,2019-09-06T23:30:00Z,28.9818,-94.9186,4.0,2.33,142.3,3.24,'11111222,11111222,11111222' 
TABS,ioos:station:wmo:42043:1,2019-09-07T04:00:00Z,28.9818,-94.9186,4.0,5.4,189.8,6.67,'11111222,11111222,11111222' 
TABS,ioos:station:wmo:42043:1,2019-09-07T05:00:00Z,28.9818,-94.9186,4.0,5.52,186.6,6.53,'11111222,11111222,11111222' 
TABS,ioos:station:wmo:42043:1,2019-09-07T06:00:00Z,28.9818,-94.9186,4.0,4.66,200.0,5.56,'11111222,11111222,11111222' 
TABS,ioos:station:wmo:42043:1,2019-09-07T07:00:00Z,28.9818,-94.9186,4.0,4.56,203.1,5.7,'11111222,11111222,11111222' 
TABS,ioos:station:wmo:42043:1,2019-09-07T08:00:00Z,28.9818,-94.9186,4.0,5.09,199.0,6.13,'11111222,11111222,11111222' 
TABS,ioos:station:wmo:42043:1,2019-09-07T09:00:00Z,28.9818,-94.9186,4.0,4.61,211.3,5.66,'11111222,11111222,11111222' 
TABS,ioos:station:wmo:42043:1,2019-09-07T10:00:00Z,28.9818,-94.9186,4.0,3.93,225.6,4.85,'11111222,11111222,11111222' 
TABS,ioos:station:wmo:42043:1,2019-09-07T11:00:00Z,28.9818,-94.9186,4.0,4.07,229.5,5.19,'11111222,11111222,11111222' 
TABS,ioos:station:wmo:42043:1,2019-09-07T12:00:00Z,28.9818,-94.9186,4.0,3.78,240.7,4.78,'11111222,11111222,11111222' 
TABS,ioos:station:wmo:42043:1,2019-09-07T13:00:00Z,28.9818,-94.9186,4.0,3.03,245.5,4.15,'11111222,11111222,11111222' 
TABS,ioos:station:wmo:42043:1,2019-09-07T14:00:00Z,28.9818,-94.9186,4.0,2.3,254.1,2.94,'11111222,11111222,11111222' 
TABS,ioos:station:wmo:42043:1,2019-09-07T15:00:00Z,28.9818,-94.9186,4.0,2.63,307.2,3.61,'11111222,11111222,11111222' 
TABS,ioos:station:wmo:42043:1,2019-09-07T16:00:00Z,28.9818,-94.9186,4.0,1.33,308.3,2.42,'11111222,11111222,11111222' 
TABS,ioos:station:wmo:42043:1,2019-09-07T17:00:00Z,28.9818,-94.9186,4.0,0.93,268.3,1.6,'11111222,11111222,11111222' 
TABS,ioos:station:wmo:42043:1,2019-09-07T18:00:00Z,28.9818,-94.9186,4.0,0.43,229.3,1.11,'11111222,11111222,11111222' 
TABS,ioos:station:wmo:42043:1,2019-09-07T19:00:00Z,28.9818,-94.9186,4.0,2.95,146.1,3.8,'11111222,11111222,11111222' 
TABS,ioos:station:wmo:42043:1,2019-09-07T20:00:00Z,28.9818,-94.9186,4.0,3.49,151.5,4.41,'11111222,11111222,11111222' 
TABS,ioos:station:wmo:42043:1,2019-09-07T21:00:00Z,28.9818,-94.9186,4.0,3.59,149.1,4.63,'11111222,11111222,11111222' 
TABS,ioos:station:wmo:42043:1,2019-09-07T22:00:00Z,28.9818,-94.9186,4.0,4.0,158.8,5.19,'11111222,11111222,11111222' 
TABS,ioos:station:wmo:42043:1,2019-09-07T23:00:00Z,28.9818,-94.9186,4.0,4.32,176.6,5.65,'11111222,11111222,11111222' 
TABS,ioos:station:wmo:42043:1,2019-09-07T23:30:00Z,28.9818,-94.9186,4.0,4.26,161.3,5.42,'11111222,11111222,11111222' 
TABS,ioos:station:wmo:42043:1,2019-09-08T04:00:00Z,28.9818,-94.9186,4.0,5.67,172.3,6.78,'11111222,11111222,11111222' 
TABS,ioos:station:wmo:42043:1,2019-09-08T05:00:00Z,28.9818,-94.9186,4.0,5.77,170.8,6.7,'11111222,11111222,11111222' 
TABS,ioos:station:wmo:42043:1,2019-09-08T06:00:00Z,28.9818,-94.9186,4.0,5.51,183.5,6.85,'11111222,11111222,11111222' 
TABS,ioos:station:wmo:42043:1,2019-09-08T07:00:00Z,28.9818,-94.9186,4.0,6.03,200.9,7.26,'11111222,11111222,11111222' 
TABS,ioos:station:wmo:42043:1,2019-09-08T08:00:00Z,28.9818,-94.9186,4.0,5.49,205.4,7.46,'11111222,11111222,11111222' 
TABS,ioos:station:wmo:42043:1,2019-09-08T09:00:00Z,28.9818,-94.9186,4.0,4.01,205.1,4.98,'11111222,11111222,11111222' 
TABS,ioos:station:wmo:42043:1,2019-09-08T10:00:00Z,28.9818,-94.9186,4.0,4.21,205.9,5.65,'11111222,11111222,11111222' 
TABS,ioos:station:wmo:42043:1,2019-09-08T11:00:00Z,28.9818,-94.9186,4.0,3.63,207.3,4.67,'11111222,11111222,11111222' 
TABS,ioos:station:wmo:42043:1,2019-09-08T12:00:00Z,28.9818,-94.9186,4.0,3.79,226.2,4.83,'11111222,11111222,11111222' 
TABS,ioos:station:wmo:42043:1,2019-09-08T13:00:00Z,28.9818,-94.9186,4.0,2.87,208.3,3.92,'11111222,11111222,11111222' 
TABS,ioos:station:wmo:42043:1,2019-09-08T14:00:00Z,28.9818,-94.9186,4.0,2.4,203.6,3.53,'11111222,11111222,11111222' 
TABS,ioos:station:wmo:42043:1,2019-09-08T15:00:00Z,28.9818,-94.9186,4.0,2.13,184.1,3.1,'11111222,11111222,11111222' 
TABS,ioos:station:wmo:42043:1,2019-09-08T16:00:00Z,28.9818,-94.9186,4.0,2.58,180.2,3.38,'11111222,11111222,11111222' 
TABS,ioos:station:wmo:42043:1,2019-09-08T17:00:00Z,28.9818,-94.9186,4.0,2.39,170.3,4.13,'11111222,11111222,11111222' 
TABS,ioos:station:wmo:42043:1,2019-09-08T18:00:00Z,28.9818,-94.9186,4.0,2.61,162.7,3.61,'11111222,11111222,11111222' 
TABS,ioos:station:wmo:42043:1,2019-09-08T19:00:00Z,28.9818,-94.9186,4.0,3.33,152.2,4.26,'11111222,11111222,11111222' 
TABS,ioos:station:wmo:42043:1,2019-09-08T20:00:00Z,28.9818,-94.9186,4.0,3.6,154.4,4.66,'11111222,11111222,11111222' 
TABS,ioos:station:wmo:42043:1,2019-09-08T21:00:00Z,28.9818,-94.9186,4.0,4.01,159.6,4.86,'11111222,11111222,11111222' 
TABS,ioos:station:wmo:42043:1,2019-09-08T22:00:00Z,28.9818,-94.9186,4.0,3.95,166.3,5.11,'11111222,11111222,11111222' 
TABS,ioos:station:wmo:42043:1,2019-09-08T23:00:00Z,28.9818,-94.9186,4.0,4.24,165.0,5.31,'11111222,11111222,11111222' 
TABS,ioos:station:wmo:42043:1,2019-09-09T17:30:00Z,28.9818,-94.9186,4.0,5.03,124.4,6.18,'11111222,11111222,11111222' 
TABS,ioos:station:wmo:42043:1,2019-09-10T12:00:00Z,28.9818,-94.9186,4.0,5.47,141.3,6.29,'11111222,11111222,11111222' 
TABS,ioos:station:wmo:42043:1,2019-09-10T13:00:00Z,28.9818,-94.9186,4.0,5.06,135.9,6.15,'11111222,11111222,11111222' 
TABS,ioos:station:wmo:42043:1,2019-09-10T14:00:00Z,28.9818,-94.9186,4.0,4.64,128.9,5.71,'11111222,11111222,11111222' 
TABS,ioos:station:wmo:42043:1,2019-09-10T15:00:00Z,28.9818,-94.9186,4.0,4.14,137.2,5.29,'11111222,11111222,11111222' 
TABS,ioos:station:wmo:42043:1,2019-09-10T16:00:00Z,28.9818,-94.9186,4.0,4.42,127.1,5.3,'11111222,11111222,11111222' 
TABS,ioos:station:wmo:42043:1,2019-09-10T17:00:00Z,28.9818,-94.9186,4.0,4.8,147.6,6.09,'11111222,11111222,11111222' 
TABS,ioos:station:wmo:42043:1,2019-09-10T18:00:00Z,28.9818,-94.9186,4.0,4.77,152.7,6.06,'11111222,11111222,11111222' 
TABS,ioos:station:wmo:42043:1,2019-09-10T19:00:00Z,28.9818,-94.9186,4.0,5.88,145.4,7.1,'11111222,11111222,11111222' 
TABS,ioos:station:wmo:42043:1,2019-09-11T12:00:00Z,28.9818,-94.9186,4.0,5.86,166.7,7.58,'11111222,11111222,11111222' 
TABS,ioos:station:wmo:42043:1,2019-09-11T13:00:00Z,28.9818,-94.9186,4.0,2.77,175.0,3.93,'11111222,11111222,11111222' 
TABS,ioos:station:wmo:42043:1,2019-09-11T14:00:00Z,28.9818,-94.9186,4.0,2.56,138.4,3.37,'11111222,11111222,11111222' 
TABS,ioos:station:wmo:42043:1,2019-09-11T15:00:00Z,28.9818,-94.9186,4.0,3.06,115.9,4.15,'11111222,11111222,11111222' 
TABS,ioos:station:wmo:42043:1,2019-09-11T16:00:00Z,28.9818,-94.9186,4.0,4.59,107.4,5.58,'11111222,11111222,11111222' 
TABS,ioos:station:wmo:42043:1,2019-09-11T17:00:00Z,28.9818,-94.9186,4.0,4.95,89.3,5.9,'11111222,11111222,11111222' 
TABS,ioos:station:wmo:42043:1,2019-09-11T18:00:00Z,28.9818,-94.9186,4.0,4.5,90.8,5.63,'11111222,11111222,11111222' 
TABS,ioos:station:wmo:42043:1,2019-09-11T19:00:00Z,28.9818,-94.9186,4.0,4.36,104.1,5.82,'11111222,11111222,11111222' 
TABS,ioos:station:wmo:42043:1,2019-09-11T20:00:00Z,28.9818,-94.9186,4.0,5.89,107.5,7.31,'11111222,11111222,11111222' 
TABS,ioos:station:wmo:42043:1,2019-09-11T21:00:00Z,28.9818,-94.9186,4.0,6.39,110.8,7.99,'11111222,11111222,11111222' 
TABS,ioos:station:wmo:42043:1,2019-09-11T22:00:00Z,28.9818,-94.9186,4.0,6.79,110.3,7.83,'11111222,11111222,11111222' 
TABS,ioos:station:wmo:42043:1,2019-09-11T23:00:00Z,28.9818,-94.9186,4.0,6.03,114.0,7.23,'11111222,11111222,11111222' 
TABS,ioos:station:wmo:42043:1,2019-09-11T23:30:00Z,28.9818,-94.9186,4.0,5.8,114.7,7.72,'11111222,11111222,11111222' 
TABS,ioos:station:wmo:42043:1,2019-09-12T04:00:00Z,28.9818,-94.9186,4.0,6.12,101.0,7.48,'11111222,11111222,11111222' 
TABS,ioos:station:wmo:42043:1,2019-09-12T05:00:00Z,28.9818,-94.9186,4.0,6.25,101.0,7.88,'11111222,11111222,11111222' 
TABS,ioos:station:wmo:42043:1,2019-09-12T06:00:00Z,28.9818,-94.9186,4.0,5.68,107.1,6.89,'11111222,11111222,11111222' 
TABS,ioos:station:wmo:42043:1,2019-09-12T06:30:00Z,28.9818,-94.9186,4.0,5.86,106.2,7.05,'11111222,11111222,11111222' 
TABS,ioos:station:wmo:42043:1,2019-09-12T08:00:00Z,28.9818,-94.9186,4.0,5.86,122.9,7.02,'11111222,11111222,11111222' 
TABS,ioos:station:wmo:42043:1,2019-09-12T09:00:00Z,28.9818,-94.9186,4.0,5.55,118.5,6.61,'11111222,11111222,11111222' 
TABS,ioos:station:wmo:42043:1,2019-09-12T10:00:00Z,28.9818,-94.9186,4.0,6.29,120.9,7.43,'11111222,11111222,11111222' 
TABS,ioos:station:wmo:42043:1,2019-09-12T11:00:00Z,28.9818,-94.9186,4.0,5.7,127.1,6.7,'11111222,11111222,11111222' 
TABS,ioos:station:wmo:42043:1,2019-09-12T12:00:00Z,28.9818,-94.9186,4.0,5.11,114.4,6.33,'11111222,11111222,11111222' 
TABS,ioos:station:wmo:42043:1,2019-09-12T13:00:00Z,28.9818,-94.9186,4.0,5.66,118.6,7.1,'11111222,11111222,11111222' 
TABS,ioos:station:wmo:42043:1,2019-09-12T14:00:00Z,28.9818,-94.9186,4.0,5.4,114.1,6.7,'11111222,11111222,11111222' 
TABS,ioos:station:wmo:42043:1,2019-09-12T15:00:00Z,28.9818,-94.9186,4.0,5.83,107.3,7.27,'11111222,11111222,11111222' 
TABS,ioos:station:wmo:42043:1,2019-09-13T19:00:00Z,28.9818,-94.9186,4.0,4.1,35.5,4.98,'11111222,11111222,11111222' 
TABS,ioos:station:wmo:42043:1,2019-09-13T20:00:00Z,28.9818,-94.9186,4.0,5.77,64.9,7.69,'11111222,11111222,11111222' 
TABS,ioos:station:wmo:42043:1,2019-09-13T21:00:00Z,28.9818,-94.9186,4.0,5.38,75.6,6.45,'11111222,11111222,11111222' 
TABS,ioos:station:wmo:42043:1,2019-09-13T22:00:00Z,28.9818,-94.9186,4.0,5.24,79.2,6.81,'11111222,11111222,11111222' 
TABS,ioos:station:wmo:42043:1,2019-09-13T23:00:00Z,28.9818,-94.9186,4.0,3.9,96.0,5.06,'11111222,11111222,11111222' 
TABS,ioos:station:wmo:42043:1,2019-09-13T23:30:00Z,28.9818,-94.9186,4.0,4.22,86.3,5.38,'11111222,11111222,11111222' 
TABS,ioos:station:wmo:42043:1,2019-09-14T04:00:00Z,28.9818,-94.9186,4.0,3.07,97.3,3.97,'11111222,11111222,11111222' 
TABS,ioos:station:wmo:42043:1,2019-09-14T05:00:00Z,28.9818,-94.9186,4.0,3.31,106.6,4.31,'11111222,11111222,11111222' 
TABS,ioos:station:wmo:42043:1,2019-09-14T06:00:00Z,28.9818,-94.9186,4.0,2.97,93.3,3.98,'11111222,11111222,11111222' 
TABS,ioos:station:wmo:42043:1,2019-09-14T07:00:00Z,28.9818,-94.9186,4.0,2.36,79.3,3.39,'11111222,11111222,11111222' 
TABS,ioos:station:wmo:42043:1,2019-09-14T08:00:00Z,28.9818,-94.9186,4.0,2.28,39.3,2.9,'11111222,11111222,11111222' 
TABS,ioos:station:wmo:42043:1,2019-09-14T09:00:00Z,28.9818,-94.9186,4.0,2.47,18.9,2.98,'11111222,11111222,11111222' 
TABS,ioos:station:wmo:42043:1,2019-09-14T10:00:00Z,28.9818,-94.9186,4.0,2.92,22.9,3.51,'11111222,11111222,11111222' 
TABS,ioos:station:wmo:42043:1,2019-09-14T11:00:00Z,28.9818,-94.9186,4.0,4.13,355.0,5.26,'11111222,11111222,11111222' 
TABS,ioos:station:wmo:42043:1,2019-09-14T12:00:00Z,28.9818,-94.9186,4.0,4.95,353.8,5.99,'11111222,11111222,11111222' 
TABS,ioos:station:wmo:42043:1,2019-09-14T13:00:00Z,28.9818,-94.9186,4.0,6.19,357.3,7.05,'11111222,11111222,11111222' 
TABS,ioos:station:wmo:42043:1,2019-09-14T14:00:00Z,28.9818,-94.9186,4.0,6.36,2.6,7.55,'11111222,11111222,11111222' 
TABS,ioos:station:wmo:42043:1,2019-09-14T15:00:00Z,28.9818,-94.9186,4.0,5.96,16.4,6.65,'11111222,11111222,11111222' 
TABS,ioos:station:wmo:42043:1,2019-09-14T16:00:00Z,28.9818,-94.9186,4.0,5.19,18.7,6.08,'11111222,11111222,11111222' 
TABS,ioos:station:wmo:42043:1,2019-09-14T17:00:00Z,28.9818,-94.9186,4.0,3.77,37.1,4.45,'11111222,11111222,11111222' 
TABS,ioos:station:wmo:42043:1,2019-09-14T18:00:00Z,28.9818,-94.9186,4.0,3.76,53.5,4.52,'11111222,11111222,11111222' 
TABS,ioos:station:wmo:42043:1,2019-09-14T19:00:00Z,28.9818,-94.9186,4.0,6.63,81.1,7.57,'11111222,11111222,11111222' 
TABS,ioos:station:wmo:42043:1,2019-09-14T20:00:00Z,28.9818,-94.9186,4.0,7.21,87.2,8.62,'11111222,11111222,11111222' 
TABS,ioos:station:wmo:42043:1,2019-09-14T21:00:00Z,28.9818,-94.9186,4.0,5.76,94.9,7.32,'11111222,11111222,11111222' 
TABS,ioos:station:wmo:42043:1,2019-09-14T22:00:00Z,28.9818,-94.9186,4.0,6.44,80.6,7.65,'11111222,11111222,11111222' 
TABS,ioos:station:wmo:42043:1,2019-09-14T23:00:00Z,28.9818,-94.9186,4.0,6.4,76.6,8.04,'11111222,11111222,11111222' 